Preview of NWS' New Version of Forecast
This preview is not operational and should not be used for support decisions.

Regional Weather Roundup (RWR)

Issued by National Weather Service (NWS)

                            
000
ASCA42 TJSJ 221210
RWRPR 
PUERTO RICO/U.S. VIRGIN ISLANDS HOURLY WEATHER ROUNDUP
NATIONAL WEATHER SERVICE SAN JUAN PR
800 AM AST MON APR 22 2019

PRZ001>002-007>008-010-221300-
PUERTO RICO
  
CITY           SKY/WX    TMP DP  RH WIND       PRES   REMARKS
SAN JUAN LMM   MOSUNNY   79  70  73 E14       30.01S                  
AGUADILLA      CLOUDY    73  70  88 E5        30.03R                  
CEIBA          CLOUDY    79  70  73 MISG      30.03R                  
$$

VIZ001>002-221300-
U.S. VIRGIN ISLANDS
  
CITY           SKY/WX    TMP DP  RH WIND       PRES   REMARKS
CHARLOTTE AMA  MOSUNNY   79  68  69 E12       30.01R                  
CHRISTIANSTED  CLOUDY    75  70  83 E9        30.02R                  
$$

HOURLY WEATHER ROUNDUP FOR THE NEWS MEDIA
  
CITY           SKY/WX    TMP DP  RH WIND       PRES   REMARKS
ORLANDO        FAIR      62  48  60 N3        30.19R                  
NEW YORK       PTSUNNY   55  48  77 N10       30.07S                  
NEWARK         PTSUNNY   58  47  66 N8        30.07F                  
CHICAGO        MOCLDY    60  39  45 S10G21    30.04S                  
HARTFORD       CLOUDY    53  53 100 N3        30.06S                  
BOSTON         PTSUNNY   51  48  89 E5        30.11                   
DALLAS         CLOUDY    65  59  81 S12G20    29.99R                  
PHILADELPHIA   PTSUNNY   58  50  75 N13       30.08S                  
LOS ANGELES    PTCLDY    54  50  86 E3        29.99S                  
WASHINGTON DC  PTSUNNY   53  42  66 NW9       30.15R